Regional Weather Roundup
Issued by NWS

Home | Current Version | Previous Version | Graphics & Text | Print | Product List | Glossary On
Versions: 1 2 3 4 5 6 7 8 9 10 11 12 13 14 15 16 17 18 19 20 21 22 23 24 25 26 27 28
000
ASUS45 KCYS 221110
RWRWY

WYOMING REGIONAL WEATHER ROUNDUP
NATIONAL WEATHER SERVICE CHEYENNE WY
500 AM MDT SUN APR 22 2018

NOTE:  "FAIR" INDICATES FEW OR NO CLOUDS BELOW 12,000 FEET
WITH NO SIGNIFICANT WEATHER AND/OR OBSTRUCTIONS TO VISIBILITY.

WYZ001-221200-
YELLOWSTONE NATIONAL PARK

CITY           SKY/WX    TMP DP  RH WIND       PRES   REMARKS
LK YELLOWSTONE   N/A     24  21  88 NW3       30.24R
W YELLOWSTONE  NOT AVBL

$$
WYZ002>013-054>058-071-098>099-221200-
NORTHERN WYOMING

CITY           SKY/WX    TMP DP  RH WIND       PRES   REMARKS
JACKSON        FAIR      25  22  88 N7        30.20F WCI  17
CODY           FAIR      43  25  49 N5        30.15F
GREYBULL       FAIR      42  34  73 N3        30.09R
WORLAND        FAIR      38  31  76 CALM      30.11R
SHERIDAN       FAIR      42  29  59 N13       30.19S
BUFFALO        FAIR      42  30  62 NW20      30.17R
GILLETTE       FAIR      31  30  96 CALM      30.13R
HULETT         FAIR      37  34  87 W6        30.16R WCI  33
NEWCASTLE      FAIR      32  32 100 CALM      30.15S

$$
WYZ014>020-022>026-101>103-221200-
CENTRAL WYOMING

CITY           SKY/WX    TMP DP  RH WIND       PRES   REMARKS
BIG PINEY      FAIR      30  21  69 VRB5      30.23S WCI  25
PINEDALE       FAIR      25  23  93 NW6       30.23S WCI  18
DUBOIS         FAIR      32  23  69 W13       30.19F WCI  22
LANDER         FAIR      41  26  55 CALM      30.12R
RIVERTON       FAIR      42  26  53 NW15      30.13R
CASPER         FAIR      30  30 100 N3        30.13S
DOUGLAS        FOG       32  32 100 CALM      30.14S VSB 1/4

$$
WYZ021-027>030-104>119-221200-
SOUTHERN WYOMING

CITY           SKY/WX    TMP DP  RH WIND       PRES   REMARKS
EVANSTON       FAIR      39  24  55 S6        30.25S WCI  35
KEMMERER       FAIR      34  27  75 NW6       30.24F WCI  29
FORT BRIDGER   SUNNY     41  27  56 W8        30.26F
ROCK SPRINGS   FAIR      37  26  64 W9        30.21R WCI  30
DIXON          FAIR      30  28  90 CALM      30.25S
RAWLINS          N/A    N/A N/A N/A MISG      30.19R
SARATOGA       FAIR      34  32  93 S3        30.22R
LARAMIE        FAIR      28  27  96 SE6       30.17S WCI  22
CHEYENNE       FAIR      29  29 100 W8        30.14R WCI  21
TORRINGTON     FAIR      29  29 100 E3        30.13S
PINE BLUFFS    CLOUDY    34  34 100 MISG      30.15S

$$




USA.gov is the U.S. government's official web portal to all federal, state and local government web resources and services.